Location: Chuathbaluk
(61.5726°N, 159.2454°W)
Time: 03:43:57
(UTC+00:00)

Transit 4A - Pass Details

Date: 03 December 2020
Orbit: 864 x 980 km, 66.8° (Epoch: 26 January)

Event Time Altitude Azimuth Distance (km) Brightness Sun altitude
Rises 20:36:39 0° 257° (WSW) 3,675 10.9 3.3°
Reaches altitude 10° 20:39:15 10° 261° (W) 2,734 10.2 3.4°
Maximum altitude 20:45:37 62° 342° (NNW) 1,101 8.2 3.7°
Drops below altitude 10° 20:51:59 10° 63° (ENE) 2,730 10.3 4.0°
Sets 20:54:35 0° 67° (ENE) 3,668 11.0 4.1°
